Regional Weather Roundup
Issued by NWS

Home | Current Version | Previous Version | Graphics & Text | Print | Product List | Glossary On
Versions: 1 2 3 4 5 6 7 8 9 10 11 12 13 14 15 16 17 18 19 20 21 22 23 24 25 26 27 28 29 30 31 32 33 34 35 36 37 38 39 40 41 42 43 44 45 46 47 48 49 50
000
ASUS43 KMKX 271721
RWRWI

WISCONSIN REGIONAL WEATHER ROUNDUP
NATIONAL WEATHER SERVICE MILWAUKEE/SULLIVAN WI
1100 AM CST MON FEB 27 2017

NOTE: "FAIR" INDICATES FEW OR NO CLOUDS BELOW 12,000 FEET WITH NO
SIGNIFICANT WEATHER AND/OR OBSTRUCTIONS TO VISIBILITY.

WIZ001-002-006>008-014>016-023>028-271800-
NORTHWEST WISCONSIN

CITY           SKY/WX    TMP DP  RH WIND       PRES   REMARKS
SUPERIOR ARPT  CLOUDY    26  18  72 E3        30.00S
ASHLAND        CLOUDY    27  21  78 CALM      30.00S
HAYWARD        CLOUDY    29  21  72 S5        29.97S WCI  24
SIREN          CLOUDY    34  23  63 SW6       29.97S WCI  29
CUMBERLAND     CLOUDY    36  21  55 SW15      29.97S WCI  26
RICE LAKE      CLOUDY    35  21  57 S10       30.01R WCI  27
CHETEK         CLOUDY    35  21  56 S9        30.01R WCI  27
LADYSMITH      SUNNY     35  22  57 S10       30.01F WCI  28
EAU CLAIRE     CLOUDY    34  20  56 SW14      30.03R WCI  25
MENOMONIE      CLOUDY    34  21  58 S7        30.03S WCI  28
NEW RICHMOND   SUNNY     38  19  46 SW16      29.99R WCI  29
OSCEOLA        SUNNY     39  23  51 SW10      30.01S WCI  32
$$

WIZ003>005-009-010-017-018-271800-
NORTH CENTRAL WISCONSIN

CITY           SKY/WX    TMP DP  RH WIND       PRES   REMARKS
MANITOWISH WTR CLOUDY    29  21  72 S9        29.96S WCI  21
ARBOR VITAE    PTSUNNY   32  23  69 S10         N/A  WCI  23
WOODRUFF       PTSUNNY   32  23  69 S10         N/A  WCI  23
RHINELANDER    CLOUDY    35  20  54 S15G24    30.00S WCI  25
EAGLE RIVER    MOSUNNY   32  19  57 S7        29.98F WCI  26
LAND O LAKES   CLOUDY    31  19  63 S8G16     30.00S WCI  23
PHILLIPS       CLOUDY    35  21  58 S15G21    29.97S WCI  25
TOMAHAWK       SUNNY     36  19  50 S6        30.01S WCI  31
MEDFORD        SUNNY     31  21  65 S13       30.02S WCI  21
MERRILL        NOT AVBL
$$

WIZ029-030-035-036-043>047-271800-
CENTRAL WISCONSIN

CITY           SKY/WX    TMP DP  RH WIND       PRES   REMARKS
WAUSAU         SUNNY     34  20  56 S12       30.04S WCI  25
MOSINEE        MOSUNNY   36  21  55 S12G17    30.06S WCI  27
MARSHFIELD     SUNNY     35  20  54 S13       30.04R WCI  26
STEVENS POINT  SUNNY     34  20  57 S13       30.08R WCI  25
WAUPACA        SUNNY     41  22  47 S8        30.10F
WAUTOMA        SUNNY     38  21  50 S8        30.11R WCI  32
WISC RAPIDS    SUNNY     37  21  52 SW9       30.08S WCI  30
CAMP DOUGLAS   MOSUNNY   37  21  52 S8        30.07S WCI  31
$$

WIZ011>013-019>022-031-037>040-048>050-271800-
NORTHEAST WISCONSIN

CITY           SKY/WX    TMP DP  RH WIND       PRES   REMARKS
ANTIGO         SUNNY     32  22  65 S13       30.04F WCI  23
SHAWANO        SUNNY     40  22  50 SW5       30.11S
OCONTO         SUNNY     33  22  64 S9        30.12S WCI  25
STURGEON BAY   SUNNY     35  24  64 S17       30.12F WCI  25
GREEN BAY      SUNNY     35  25  66 S9        30.12S WCI  28
MANITOWOC      SUNNY     35  26  69 S13       30.15S WCI  26
APPLETON       MOSUNNY   36  21  55 SE9       30.10R WCI  29
CLINTONVILLE   SUNNY     36  23  60 S7        30.10S WCI  30
OSHKOSH        SUNNY     36  23  59 S12       30.11S WCI  28
$$

WIZ032>034-041-042-053>061-271800-
SOUTHWEST WISCONSIN

CITY           SKY/WX    TMP DP  RH WIND       PRES   REMARKS
LA CROSSE      SUNNY     38  25  59 S12       30.07F WCI  30
SPARTA         SUNNY     39  24  54 S9        30.08F WCI  33
VIROQUA        SUNNY     36  25  64 S8        30.06S WCI  30
BOSCOBEL       MOSUNNY   41  28  60 VRB7      30.10S
PRAIRIE DU CHI SUNNY     39  29  65 S3        30.09S
PLATTEVILLE    CLOUDY    38  34  87 S10       30.09F WCI  30
$$

WIZ056-057-062-063-064-067-068-271800-
SOUTH CENTRAL WISCONSIN

CITY           SKY/WX    TMP DP  RH WIND       PRES   REMARKS
REEDSBURG      PTSUNNY   38  25  61 S8        30.09S WCI  32
BARABOO/DELLS  SUNNY     38  23  55 S13       30.09S WCI  30
LONE ROCK      PTSUNNY   40  25  55 SE5       30.11S
MINERAL POINT  PTSUNNY   37  32  81 SE8       30.09R WCI  31
MADISON        PTSUNNY   39  26  59 S10       30.11R WCI  32
MIDDLETON      CLOUDY    40  29  63 S7        30.11R
WATERTOWN      SUNNY     41  27  58 S10       30.11S
MONROE         PTSUNNY   37  32  81 S12       30.10S WCI  30
JANESVILLE     MOSUNNY   45  30  57 S9        30.12R
$$

WIZ051-052-058>065-066-070>072-271800-
SOUTHEAST WISCONSIN

CITY           SKY/WX    TMP DP  RH WIND       PRES   REMARKS
MILWAUKEE      MOSUNNY   42  30  62 SE14      30.15F
WAUKESHA       SUNNY     39  25  56 SE10G17   30.14F WCI  32
MILWAUKEE/TIMM SUNNY     41  23  48 SE12      30.14F
RACINE         CLOUDY    39  29  67 S12       30.16F WCI  32
KENOSHA        PTSUNNY   41  30  65 SE9       30.14F
FOND DU LAC    SUNNY     37  23  56 S12       30.11F WCI  29
SHEBOYGAN      SUNNY     36  27  69 S10       30.14S WCI  28
WEST BEND      SUNNY     39  25  56 S9        30.13S WCI  33
JUNEAU         SUNNY     38  25  61 SE13      30.12S WCI  30
$$

LSZ147-162-271800-
LAKE SUPERIOR

STATION/POSITION TIME  TEMP    WIND        PRES    WAVE
                       AIR SEA DIR/SP/G            HT/PER
                 (UTC) (F)     (DEG/KT/KT) (MB)    (FT/S)
DEVILS ISLAND    1700   24     300/  3/  4 1017.2F
PORT WING        1630   25     350/  5/  5 1015.9F
SAXON HARBOR     1630   29      CALM  /  2 1015.6F
$$

LMZ867-665-643>646-271800-
LAKE MICHIGAN

STATION/POSITION TIME  TEMP    WIND        PRES    WAVE
                       AIR SEA DIR/SP/G            HT/PER
                 (UTC) (F)     (DEG/KT/KT) (MB)    (FT/S)
CHAMBERS ISLAND  1640   36     160/  5/ 15 1019.6F
NORTHPORT PIER   1640   33     150/ 12/ 17 1020.3F
SISTER BAY       1635          180/ 18/ 22   N/A
KEWAUNEE LAKESHO 1654   33     180/ 15/ 16 1020.3S
SHEBOYGAN LAKESH 1700   35     170/ 13/ 14 1021.2F
PORT WASHINGTON  1640   38     170/  9/ 12 1022.0S
MILWAUKEE LAKESH 1700   36     150/  9/ 10   N/A
KENOSHA   LAKESH 1700   36     150/  9/ 10 1021.0
$$

TC  - TEMPERATURE IN CELSIUS
VSB - VISIBILITY IN STATUTE MILES
WCI - WIND CHILL INDEX
HX  - HEAT INDEX





USA.gov is the U.S. government's official web portal to all federal, state and local government web resources and services.